• Em Portugal
  • Lista de países
  • Para 7 dias
  • Temperatura da água
  • Mapas de satélite
  • Mapa do tempo
  • Widgets de tempo
  • user-avatar
    Iniciar Sessão

    Previsão horária em Corozal

    Hoje, 21 Setembro, Quinta-feira

    Tempo Temperatura Precipitação Vento Pressão Humidade
    00:00 +27°C° 0,2 mm 2 m/s 758 mmHg 94%
    01:00 +27°C° 0,1 mm 2 m/s 758 mmHg 94%
    02:00 +26°C° 0,1 mm 2 m/s 757 mmHg 95%
    03:00 +26°C° 0,1 mm 2 m/s 757 mmHg 96%
    04:00 +26°C° 0 mm 2 m/s 757 mmHg 96%
    05:00 +26°C° 0 mm 1 m/s 757 mmHg 97%
    06:00 +26°C° 0 mm 1 m/s 757 mmHg 97%
    07:00 +28°C° 0,1 mm 2 m/s 758 mmHg 88%
    08:00 +30°C° 0,1 mm 2 m/s 758 mmHg 79%
    09:00 +32°C° 0,1 mm 2 m/s 758 mmHg 70%
    10:00 +35°C° 0 mm 3 m/s 758 mmHg 63%
    11:00 +36°C° 0 mm 3 m/s 758 mmHg 56%
    12:00 +37°C° 0 mm 3 m/s 757 mmHg 49%
    13:00 +37°C° 0 mm 3 m/s 757 mmHg 48%
    14:00 +37°C° 0 mm 3 m/s 756 mmHg 48%
    15:00 +37°C° 0 mm 3 m/s 755 mmHg 48%
    16:00 +35°C° 0 mm 3 m/s 755 mmHg 57%
    17:00 +32°C° 0 mm 2 m/s 756 mmHg 67%
    18:00 +30°C° 0 mm 2 m/s 756 mmHg 76%
    19:00 +29°C° 0 mm 2 m/s 756 mmHg 81%
    20:00 +28°C° 0 mm 2 m/s 757 mmHg 86%
    21:00 +27°C° 0 mm 2 m/s 757 mmHg 90%
    22:00 +27°C° 0 mm 2 m/s 757 mmHg 92%
    23:00 +27°C° 0 mm 2 m/s 757 mmHg 93%

    Amanhã, 22 Setembro, Sexta-feira

    Tempo Temperatura Precipitação Vento Pressão Humidade
    00:00 +27°C° 0 mm 2 m/s 757 mmHg 94%
    01:00 +27°C° 0 mm 2 m/s 757 mmHg 95%
    02:00 +26°C° 0 mm 1 m/s 757 mmHg 95%
    03:00 +26°C° 0 mm 1 m/s 756 mmHg 96%
    04:00 +26°C° 0 mm 1 m/s 756 mmHg 96%
    05:00 +26°C° 0 mm 1 m/s 757 mmHg 96%
    06:00 +26°C° 0 mm 1 m/s 757 mmHg 96%
    07:00 +28°C° 0 mm 1 m/s 757 mmHg 86%
    08:00 +31°C° 0 mm 2 m/s 757 mmHg 75%
    09:00 +34°C° 0 mm 2 m/s 758 mmHg 65%
    10:00 +35°C° 0 mm 2 m/s 757 mmHg 60%
    11:00 +36°C° 0 mm 2 m/s 757 mmHg 55%
    12:00 +37°C° 0 mm 2 m/s 756 mmHg 50%
    13:00 +37°C° 0 mm 2 m/s 756 mmHg 50%
    14:00 +37°C° 0 mm 2 m/s 755 mmHg 50%
    15:00 +37°C° 0 mm 2 m/s 754 mmHg 50%
    16:00 +35°C° 0 mm 2 m/s 754 mmHg 59%
    17:00 +32°C° 0 mm 2 m/s 755 mmHg 69%
    18:00 +30°C° 0 mm 2 m/s 755 mmHg 78%
    19:00 +29°C° 0 mm 2 m/s 755 mmHg 82%
    20:00 +28°C° 0 mm 2 m/s 756 mmHg 86%
    21:00 +28°C° 0 mm 2 m/s 756 mmHg 90%
    22:00 +27°C° 0 mm 2 m/s 756 mmHg 91%
    23:00 +27°C° 0 mm 1 m/s 756 mmHg 92%

    Depois de amanhã, 23 Setembro, Sábado

    Tempo Temperatura Precipitação Vento Pressão Humidade
    00:00 +27°C° 0 mm 1 m/s 756 mmHg 94%
    01:00 +27°C° 0 mm 1 m/s 756 mmHg 94%
    02:00 +26°C° 0 mm 1 m/s 755 mmHg 95%
    03:00 +26°C° 0 mm 1 m/s 755 mmHg 96%
    04:00 +26°C° 0 mm 1 m/s 755 mmHg 96%
    05:00 +26°C° 0 mm 1 m/s 755 mmHg 97%
    06:00 +26°C° 0 mm 1 m/s 756 mmHg 97%
    07:00 +28°C° 0 mm 1 m/s 756 mmHg 87%
    08:00 +31°C° 0 mm 1 m/s 756 mmHg 76%
    09:00 +33°C° 0 mm 1 m/s 757 mmHg 66%
    10:00 +34°C° 0,1 mm 1 m/s 756 mmHg 61%
    11:00 +36°C° 0,1 mm 2 m/s 756 mmHg 55%
    12:00 +37°C° 0,1 mm 2 m/s 756 mmHg 50%
    13:00 +36°C° 0,5 mm 2 m/s 755 mmHg 55%
    14:00 +36°C° 0,5 mm 2 m/s 754 mmHg 60%
    15:00 +35°C° 0,5 mm 2 m/s 754 mmHg 65%
    16:00 +32°C° 0,3 mm 2 m/s 754 mmHg 73%
    17:00 +30°C° 0,3 mm 2 m/s 754 mmHg 81%
    18:00 +29°C° 0,3 mm 2 m/s 754 mmHg 88%
    19:00 +28°C° 0 mm 2 m/s 755 mmHg 90%
    20:00 +28°C° 0 mm 2 m/s 755 mmHg 92%
    21:00 +27°C° 0 mm 2 m/s 756 mmHg 94%
    22:00 +27°C° 0 mm 2 m/s 756 mmHg 95%
    23:00 +27°C° 0 mm 2 m/s 756 mmHg 95%

    24 Setembro, Domingo

    Tempo Temperatura Precipitação Vento Pressão Humidade
    00:00 +26°C° 0 mm 1 m/s 756 mmHg 96%
    01:00 +26°C° 0 mm 1 m/s 755 mmHg 96%
    02:00 +26°C° 0 mm 1 m/s 755 mmHg 97%
    03:00 +26°C° 0 mm 1 m/s 755 mmHg 97%
    04:00 +26°C° 0 mm 1 m/s 755 mmHg 97%
    05:00 +26°C° 0 mm 1 m/s 755 mmHg 98%
    06:00 +26°C° 0 mm 1 m/s 755 mmHg 98%
    07:00 +28°C° 0 mm 1 m/s 756 mmHg 88%
    08:00 +30°C° 0 mm 1 m/s 756 mmHg 78%
    09:00 +34°C° 0 mm 2 m/s 756 mmHg 68%
    10:00 +35°C° 0,2 mm 2 m/s 756 mmHg 64%
    11:00 +36°C° 0,2 mm 2 m/s 755 mmHg 60%
    12:00 +37°C° 0,2 mm 2 m/s 755 mmHg 56%
    13:00 +37°C° 0,1 mm 2 m/s 754 mmHg 55%
    14:00 +37°C° 0,1 mm 2 m/s 754 mmHg 54%
    15:00 +37°C° 0,1 mm 2 m/s 753 mmHg 53%
    16:00 +35°C° 0 mm 2 m/s 753 mmHg 61%
    17:00 +32°C° 0 mm 2 m/s 754 mmHg 69%
    18:00 +30°C° 0 mm 2 m/s 754 mmHg 77%
    19:00 +29°C° 0 mm 2 m/s 755 mmHg 81%
    20:00 +29°C° 0 mm 2 m/s 755 mmHg 85%
    21:00 +28°C° 0 mm 2 m/s 756 mmHg 89%
    22:00 +28°C° 0 mm 2 m/s 756 mmHg 91%
    23:00 +28°C° 0 mm 2 m/s 756 mmHg 92%

    25 Setembro, Segunda-feira

    Tempo Temperatura Precipitação Vento Pressão Humidade
    00:00 +27°C° 0 mm 2 m/s 755 mmHg 93%
    01:00 +27°C° 0 mm 2 m/s 755 mmHg 94%
    02:00 +27°C° 0 mm 2 m/s 755 mmHg 94%
    03:00 +27°C° 0 mm 1 m/s 755 mmHg 95%
    04:00 +27°C° 0,2 mm 2 m/s 755 mmHg 95%
    05:00 +27°C° 0,2 mm 2 m/s 755 mmHg 95%
    06:00 +27°C° 0,2 mm 2 m/s 755 mmHg 95%
    07:00 +28°C° 0,1 mm 2 m/s 756 mmHg 89%
    08:00 +30°C° 0,1 mm 2 m/s 756 mmHg 82%
    09:00 +31°C° 0,1 mm 2 m/s 756 mmHg 75%
    10:00 +32°C° 0,3 mm 2 m/s 756 mmHg 74%
    11:00 +32°C° 0,3 mm 2 m/s 756 mmHg 72%
    12:00 +32°C° 0,3 mm 2 m/s 755 mmHg 71%
    13:00 +34°C° 0 mm 3 m/s 755 mmHg 68%
    14:00 +34°C° 0 mm 3 m/s 754 mmHg 66%
    15:00 +34°C° 0 mm 3 m/s 754 mmHg 63%
    16:00 +33°C° 0 mm 3 m/s 754 mmHg 70%
    17:00 +31°C° 0 mm 3 m/s 754 mmHg 76%
    18:00 +30°C° 0 mm 3 m/s 755 mmHg 82%
    19:00 +29°C° 0 mm 2 m/s 755 mmHg 85%
    20:00 +29°C° 0 mm 2 m/s 756 mmHg 88%
    21:00 +28°C° 0 mm 2 m/s 756 mmHg 91%
    22:00 +28°C° 0,2 mm 2 m/s 756 mmHg 92%
    23:00 +28°C° 0,2 mm 2 m/s 756 mmHg 93%

    26 Setembro, Terça-feira

    Tempo Temperatura Precipitação Vento Pressão Humidade
    00:00 +28°C° 0,2 mm 2 m/s 755 mmHg 95%
    01:00 +28°C° 2,1 mm 3 m/s 755 mmHg 95%
    02:00 +27°C° 2,1 mm 3 m/s 755 mmHg 96%
    03:00 +27°C° 2,1 mm 3 m/s 755 mmHg 97%
    04:00 +27°C° 0,8 mm 3 m/s 755 mmHg 97%
    05:00 +27°C° 0,8 mm 3 m/s 755 mmHg 97%
    06:00 +27°C° 0,8 mm 3 m/s 755 mmHg 98%
    07:00 +29°C° 0 mm 3 m/s 756 mmHg 90%
    08:00 +30°C° 0 mm 4 m/s 756 mmHg 83%
    09:00 +33°C° 0 mm 4 m/s 756 mmHg 76%
    10:00 +34°C° 0,2 mm 4 m/s 756 mmHg 72%
    11:00 +35°C° 0,2 mm 4 m/s 755 mmHg 67%
    12:00 +36°C° 0,2 mm 4 m/s 755 mmHg 63%
    13:00 +35°C° 1,1 mm 4 m/s 754 mmHg 69%
    14:00 +34°C° 1,1 mm 4 m/s 754 mmHg 75%
    15:00 +33°C° 1,1 mm 3 m/s 753 mmHg 81%
    16:00 +31°C° 0,1 mm 3 m/s 753 mmHg 84%
    17:00 +30°C° 0,1 mm 3 m/s 754 mmHg 86%
    18:00 +29°C° 0,1 mm 2 m/s 754 mmHg 89%
    19:00 +29°C° 0 mm 2 m/s 754 mmHg 91%
    20:00 +28°C° 0 mm 2 m/s 755 mmHg 92%
    21:00 +28°C° 0 mm 3 m/s 755 mmHg 94%
    22:00 +28°C° 0,4 mm 3 m/s 755 mmHg 95%
    23:00 +28°C° 0,4 mm 3 m/s 754 mmHg 96%
    Mostrar mais